Regional Weather Roundup
Issued by NWS

Home | Current Version | Previous Version | Graphics & Text | Print | Product List | Glossary On
Versions: 1 2 3 4 5 6 7 8 9 10 11 12 13 14 15 16 17 18 19 20 21 22 23 24 25 26 27 28 29 30 31 32 33 34 35 36 37 38 39 40 41 42 43 44 45 46 47 48 49 50
000
ASUS43 KOAX 232010
RWRNE

WEATHER ROUNDUP FOR NEBRASKA
NATIONAL WEATHER SERVICE OMAHA NE
300 PM CDT MON MAY 23 2016

NOTES: SATELLITE DATA IS BEING USED TO AUGMENT CLOUD COVER ABOVE
       12000 FEET.
       "FAIR" INDICATES FEW OR NO CLOUDS BELOW 12,000 FEET WITH NO
       SIGNIFICANT WEATHER AND/OR OBSTRUCTIONS TO VISIBILITY.

  * THESE STATIONS DO NOT REPORT WEATHER SUCH AS RAIN...SNOW OR FOG.

NEZ001>004-019>022-054>056-232100-
NEBRASKA PANHANDLE

CITY           SKY/WX    TMP DP  RH WIND       PRES   REMARKS
SCOTTSBLUFF    PTSUNNY   72  33  24 W13G21    29.82F
ALLIANCE       MOSUNNY   70  30  22 SW13      29.81F
CHADRON        SUNNY     72  33  24 SW9       29.77F
KIMBALL        MOSUNNY   67  38  33 SW8G17    29.87F
SIDNEY         CLOUDY    70  33  25 VRB5      29.86F
$$

NEZ057>060-069>072-079>082-232100-
SOUTHWEST NEBRASKA

CITY           SKY/WX    TMP DP  RH WIND       PRES   REMARKS
NORTH PLATTE   SUNNY     76  41  28 NW5       29.80F
IMPERIAL       PTSUNNY   73  37  27 VRB3      29.84F
LEXINGTON      SUNNY     74  55  51 SW6       29.79F
MCCOOK         SUNNY     76  50  40 VRB3      29.80F
OGALLALA       SUNNY     73  32  22 W5        29.83F
$$

NEZ005>010-023>029-035>040-094-232100-
NORTH CENTRAL NEBRASKA

CITY           SKY/WX    TMP DP  RH WIND       PRES   REMARKS
VALENTINE      SUNNY     76  31  19 SW13      29.75F
AINSWORTH      SUNNY     76  38  25 SW15G22   29.77S
BROKEN BOW     MOSUNNY   75  53  46 SW8       29.79F
O`NEILL        CLOUDY    76  48  36 SW9       29.76F
ORD            MOSUNNY   75  55  49 SW12      29.76F
THEDFORD       SUNNY     77  37  23 SW14      29.80S
$$

NEZ041-046>049-061>064-073>077-083>087-232100-
SOUTH CENTRAL NEBRASKA

CITY           SKY/WX    TMP DP  RH WIND       PRES   REMARKS
GRAND ISLAND   CLOUDY    73  64  73 SE13      29.78F
AURORA         TSTM      73  64  73 SW8       29.79S
HASTINGS       LGT RAIN  69  65  86 SW8       29.78S
HEBRON         CLOUDY    73  64  73 S9        29.79F
HOLDREGE       MOSUNNY   74  56  53 SE3       29.78F
KEARNEY *      PTSUNNY   75  61  60 S7        29.79F
YORK           PTSUNNY   75  59  57 SW18      29.79S
$$

NEZ011>018-030>034-042>045-232100-
NORTHEAST NEBRASKA

CITY           SKY/WX    TMP DP  RH WIND       PRES   REMARKS
NORFOLK        CLOUDY    77  61  57 SW9       29.74F
ALBION         CLOUDY    75  57  54 SW10      29.76F
BLAIR          CLOUDY    74  65  73 SE9       29.79R
FREMONT        MOSUNNY   77  63  63 S15       29.78R
TEKAMAH        CLOUDY    80  62  54 S20       29.77R
WAYNE          PTSUNNY   77  66  68 W10       29.75S HAZE
$$

NEZ050>053-065>068-078-088>093-232100-
SOUTHEAST NEBRASKA

CITY           SKY/WX    TMP DP  RH WIND       PRES   REMARKS
LINCOLN        PTSUNNY   78  66  66 S17       29.76F
OMAHA EPPLEY   CLOUDY    77  67  71 SE10      29.78F
BEATRICE       CLOUDY    74  66  77 S9        29.80R
FALLS CITY     LGT RAIN  72  62  71 S21G38    29.83R
NEBRASKA CITY  CLOUDY    76  63  64 S18G25    29.81R
PLATTSMOUTH    CLOUDY    78  66  67 SE18G26   29.79S
$$

NEZ044-045-051>053-067-232100-
OMAHA AREA

CITY           SKY/WX    TMP DP  RH WIND       PRES   REMARKS
OMAHA EPPLEY   CLOUDY    77  67  71 SE10      29.78F
BLAIR          CLOUDY    74  65  73 SE9       29.79R
FREMONT        MOSUNNY   77  63  63 S15       29.78R
MILLARD        MOSUNNY   78  67  70 SE17      29.77S
OFFUTT AFB     CLOUDY    75  67  76 SE15      29.78R
PLATTSMOUTH    CLOUDY    78  66  67 SE18G26   29.79S
WAHOO          FAIR      76  63  63 SE18      29.77S
$$



USA.gov is the U.S. government's official web portal to all federal, state and local government web resources and services.